Home   Weather   Kriens   Past weeks

Flag for Switzerland Past Weather in Kriens, Lucerne, Switzerland — Yesterday and Last 2 Weeks

Now
65 °F

Mild.


Feels Like: 65 °F
Forecast: 54 / 64 °F
Wind: 3 mph from Northeast

Location: Giswil

Current Time: Jul 24, 2017 at 10:59:21 am

Latest Report: Jul 24, 2017 at 10:00 am


Visibility: N/A

Pressure: 29.81 "Hg

Humidity: 86%

Dew Point: 60 °F

Location of KriensLocation

Past Weather in Kriens — Graph

°F

Kriens Temperature Yesterday

Maximum temperature yesterday: 69 °F (at 11:00 am)
Minimum temperature yesterday: 61 °F (at 1:00 am)
Average temperature yesterday: 65 °F

High & Low Weather Summary for the Past Weeks

 TemperatureHumidityPressure
High86 °F (Jul 19, 3:00 pm)100% (Jul 9, 10:00 pm)30.30 "Hg (Jul 9, 10:00 pm)
Low50 °F (Jul 16, 3:00 am)39% (Jul 14, 4:00 pm)29.78 "Hg (Jul 21, 5:00 pm)
Average67 °F80%30.02 "Hg
* Reported Jul 9 9:00 am — Jul 24 9:00 am, Kriens. Weather by CustomWeather, © 2017

Note: Actual official high and low records may vary slightly from our data, if they occured in-between our weather recording intervals... More about our weather records

Advertising

Kriens Weather History for the Previous 24 Hours

Scroll right to see more
 ConditionsComfort  
Time TempWeatherWind HumidityBarometerVisibility
9:00 am
Mon, Jul 24
63 °FMild.6 mph91%29.82 "HgN/A
8:00 am61 °FCool.1 mph98%29.84 "HgN/A
7:00 am61 °FCool.2 mph97%29.87 "HgN/A
6:00 am60 °FCool.2 mph98%29.87 "HgN/A
5:00 am60 °FCool.2 mph99%29.89 "HgN/A
4:00 am61 °FCool.1 mph98%29.90 "HgN/A
3:00 am62 °FCool.1 mph98%29.92 "HgN/A
2:00 am64 °FMild.1 mph92%29.95 "HgN/A
1:00 am64 °FMild.1 mph93%29.98 "HgN/A
12:00 am64 °FMild.1 mph90%29.99 "HgN/A
11:00 pm
Sun, Jul 23
64 °FMild.1 mph95%30.01 "HgN/A
10:00 pm64 °FMild.1 mph98%30.02 "HgN/A
9:00 pm65 °FMild.No wind93%30.01 "HgN/A
8:00 pm67 °FMild.1 mph83%30.01 "HgN/A
7:00 pm67 °FMild.No wind74%30.01 "HgN/A
6:00 pm68 °FMild.1 mph71%30.01 "HgN/A
5:00 pm67 °FMild.2 mph72%30.04 "HgN/A
4:00 pm67 °FMild.3 mph74%30.05 "HgN/A
3:00 pm67 °FMild.6 mph74%30.06 "HgN/A
2:00 pm66 °FMild.5 mph76%30.07 "HgN/A
1:00 pm66 °FMild.6 mph78%30.07 "HgN/A
12:00 pm67 °FMild.9 mph79%30.06 "HgN/A
11:00 am69 °FMild.3 mph78%30.04 "HgN/A
10:00 am67 °FMild.1 mph80%30.05 "HgN/A
Weather by CustomWeather, © 2017

See weather overviewHow to use our weather pages